YZ-1 R/B, 43625

Orbit data source: Space-Track

YZ-1 R/B, 43625 is space debris originally from a launch on Wed, 19 Sep 2018 UTC launched from the Xichang Space Center, China (XSC). Debris objects in space refer to the collection of defunct objects orbiting the Earth. Examples of debris include non-operational satellites, rocket bodies, and fragments generated from explosions, collisions, or faulty payload assembly.

Loading next visibility...
Identifier
43625, 2018-072D
Orbit
Active
Last TLE update
3 days ago
Origin
Manufacturer
CALT
Mission
Spacecraft
Bus & Motor
YZ-1, Unknown motor
Mass
~2,075 kg wet, ~2,075 kg dry
Launch date (UTC)
2018-09-19 (7 years ago)
Launch vehicle
Unknown
Launch site
Xichang Space Center, China (XSC)
Object type
Payload
Rocket body
Debris
Shape & HBR
Double Cone, 4 m
Radar Cross Section
5.890 m², Large (>1 m²)

Expand to show TLE details & history

TLE from 3 days ago
0 YZ-1 R/B
1 43625U 18072D   25180.88643683 -.00000049  00000-0  00000-0 0  9994
2 43625  56.1124  82.2578 0104806  59.7204 301.3450  1.77481836 43939
Epoch: 2025-06-29T21:16Z
TLE epoch observation values (Epoch: 2025-06-29T21:16:28.142Z)
Latitude
-0.00001°
Longitude
-155.04764°
Altitude
22,282.856 km
Speed
3.739 km/s
True Right ascension
05h 29m 05s
True Declination
0° 00' 00"
Sunlit
Object was in daylight at epoch
Visualization orbit readout
Latitude
-16.06572°
Longitude
-166.27779°
Altitude
22,381.618 km
Speed
3.727 km/s
Apparent Right ascension
04h 50m 31s
Apparent Declination
-20° 18' 50"
Sunlit
Object is in daylight
Visualization observer readout
Local Sidereal Time
17:26:31
Azimuth
24.086° NE
Elevation
-68.938°
Doppler factor
1
Orbital elements
Apogee altitude
22,739.762 km
Perigee altitude
22,135.746 km
Semi-major axis
28,815.891 km
Eccentricity
0.01048
Inclination
56.1124°
RAAN
82.2578°
Arg. of periapsis
59.7204°
True anomaly
Unknown
Mean anomaly
301.345°
Eccentric anomaly
Unknown
Mean motion
0.44371 °/min
Orbital period
811.35 mins
BSTAR
0
Loading maneuver chart data...
Loading SW <> Apogee altitude chart data...
Loading historical data...
Loading historical data...
Loading historical data...
Loading historical data...
Loading historical data...
Loading historical data...
Loading historical data...
Other satellites on launch #72 in the year 2018 (2018-09-19 UTC)

YZ-1 R/B Visibility forecast

Observer location: undefined°, undefined°

Span
Click to sort rows by Start time (UTC) header in descending order
Start Az.
Max El. time (UTC)
Max El. Az.
Max El.
End time (UTC)
End Az.
487 mins2025-07-03 19:03:57.902Z215.233° SW2025-07-03 22:45:57.902Z339.511° N43.279°2025-07-04 03:10:57.902Z130.811° SE
|